Tracking 29747 objects as of 9-Oct-2024
HD Live streaming from Space Station
objects crossing your sky now

COSMOS 249 DEB

Track COSMOS 249 DEB now!
10-day predictions


NORAD ID: 3509
Int'l Code: 1968-091F
Perigee: 413.3 km
Apogee: 712.8 km
Inclination: 62.3 °
Period: 95.8 minutes
Semi major axis: 6934 km
RCS: 0.036 m2 (small)
Launch date: October 20, 1968
Source: Commonwealth of Independent States (former USSR) (CIS)
Launch site: TYURATAM MISSILE AND SPACE COMPLEX (TTMTR)

Note: This is SATELLITE DEBRIS
Your satellite tracking list
Your tracking list is empty




NASA's NSSDC Master Catalog

Two Line Element Set (TLE):
1  3509U 68091F   24283.55007229  .00056305  00000-0  24321-2 0  9993
2  3509  62.3457   3.3353 0215973  26.0425 335.1344 15.03570098813967
Source of the keplerian elements: AFSPC